Location: Unspecified
(38.5482°N, 1.4063°W)
Time: 07:52:04
(UTC+00:00)

ISS - Visible Passes

Search period start: 19 January 2019 00:00
Search period end: 29 January 2019 00:00
Orbit: 404 x 411 km, 51.6° (Epoch: 19 January)

Date Brightness Start Highest point End Pass type
(mag) Time Alt. Az. Time Alt. Az. Time Alt. Az.
19 Jan -0.9 19:23:14 10° SSW 19:23:34 12° SSW 19:23:34 12° SSW visible
20 Jan -2.0 18:32:42 10° S 18:34:51 19° SE 18:34:51 19° SE visible
21 Jan -2.3 19:16:43 10° SW 19:18:48 36° WSW 19:18:48 36° WSW visible
22 Jan -3.5 18:25:29 10° SSW 18:28:40 50° SE 18:29:55 31° ENE visible
23 Jan -2.3 19:10:49 10° W 19:13:39 32° NW 19:13:39 32° NW visible
24 Jan -3.4 18:19:08 10° WSW 18:22:22 58° NW 18:24:35 19° NE visible
25 Jan -1.6 19:05:26 10° WNW 19:07:49 18° NNW 19:08:09 18° NNW visible
26 Jan -2.1 18:13:21 10° W 18:16:12 26° NNW 18:18:56 11° NNE visible
27 Jan -1.2 19:00:32 10° NW 19:01:52 12° NNW 19:02:23 12° N visible
28 Jan -1.4 18:08:03 10° WNW 18:10:08 16° NNW 18:12:14 10° NNE visible
